Location: Boneville
(33.4331°N, 82.4399°W)
Time: 09:35:54
(UTC+00:00)

Tiangong - Pass Details

Date: 11 December 2021
Orbit: 381 x 387 km, 41.5° (Epoch: 27 January)

Event Time Altitude Azimuth Distance (km) Brightness Sun altitude
Rises 23:33:59 0° 278° (W) 2,282 6.2 -14.6°
Reaches altitude 10° 23:36:21 10° 293° (WNW) 1,425 4.6 -15.0°
Maximum altitude 23:39:00 23° 349° (NNW) 888 2.8 -15.6°
Enters shadow 23:39:50 21° 13° (NNE) 957 2.8 -15.7°
